Flag for U.S.A. Weather past 2 weeks in San Angelo, Texas, U.S.A.

47 °F

Rain. Low clouds.

Feels Like: 41 °F
Forecast: 36 / 68 °F
Wind: 15 mph from Northeast

Location: Mathis Field

Current Time: Nov 27, 2015 at 6:27:07 AM

Latest Report: Nov 27, 2015 at 5:51 AM

Visibility: 8 mi

Pressure: 30.12 "Hg (28.14 "Hg at 561m altitude)

Humidity: 90%

Dew point: 44 °F

Location of San AngeloLocation

Historic Weather in San Angelo — Graph


San Angelo temperature yesterday

Maximum temperature yesterday: 72 °F (at 1:51 PM)
Minimum temperature yesterday: 67 °F (at 7:57 AM)
Average temperature yesterday: 69 °F

Past Weeks' High & Low Weather Summary

High77 °F (Nov 25, 2:51 PM)97% (Nov 21, 3:04 AM)30.41 "Hg (Nov 21, 3:04 AM)
Low22 °F (Nov 22, 4:51 AM)16% (Nov 18, 3:51 PM)29.44 "Hg (Nov 16, 10:51 PM)
Average57 °F63%30.05 "Hg
* Reported Nov 12 4:51 AM — Nov 27 4:51 AM, San Angelo, Weather by CustomWeather, © 2015

Note: Actual official high and low records may vary slightly from our data, if they occured in-between our weather recording intervals... More about our weather records


San Angelo weather history for previous 24 hours

Time TempWeatherWind HumidityBarometerVisibility
4:51 AM
Fri, Nov 27
50 °FLight rain. Low clouds.15 mph93%30.09 "Hg10 mi
3:51 AM59 °FMostly cloudy.14 mph90%30.03 "Hg7 mi
2:51 AM68 °FMostly cloudy.3 mph90%30.01 "Hg10 mi
1:51 AM69 °FOvercast.No wind87%30.01 "Hg10 mi
12:51 AM68 °FMostly cloudy.No wind90%30.00 "Hg10 mi
11:58 PM
Thu, Nov 26
68 °FPassing clouds.3 mph90%30.05 "Hg10 mi
10:51 PM68 °FPassing clouds.8 mph90%30.01 "Hg10 mi
9:51 PM67 °FPassing clouds.5 mph90%30.02 "Hg10 mi
8:51 PM67 °FPassing clouds.No wind90%30.01 "Hg10 mi
7:51 PM68 °FPassing clouds.8 mph90%29.99 "Hg10 mi
6:51 PM68 °FLight rain. Passing clouds.7 mph90%29.99 "Hg10 mi
5:51 PM69 °FPassing clouds.8 mph87%29.97 "Hg10 mi
4:51 PM69 °FLight rain. Partly sunny.13 mph90%29.96 "Hg10 mi
3:51 PM69 °FLight rain. Overcast.10 mph90%29.98 "Hg7 mi
2:51 PM72 °FLight rain. Mostly cloudy.9 mph78%29.98 "Hg10 mi
1:51 PM72 °FOvercast.14 mph78%29.98 "Hg10 mi
12:51 PM71 °FMostly cloudy.13 mph81%30.00 "Hg10 mi
11:58 AM70 °FCloudy.9 mph84%30.09 "Hg10 mi
11:03 AM71 °FOvercast.10 mph81%30.10 "Hg10 mi
10:51 AM70 °FMostly cloudy.8 mph84%30.05 "Hg10 mi
9:51 AM69 °FMostly cloudy.7 mph87%30.05 "Hg10 mi
8:51 AM67 °FOvercast.3 mph93%30.05 "Hg7 mi
7:57 AM67 °FLight rain. Fog.10 mph90%30.07 "Hg2 mi
6:51 AM68 °FOvercast.9 mph84%30.00 "Hg10 mi
Weather by CustomWeather, © 2015

See weather overviewHow to use our weather pages